Address 0xaaa18a315494002e2fbd6205bcc05c7b46c01aac 3

 

Overview

Balance:
0.001027643398899133 ETH

ETH Value:
$1.81 (@ $1,761.88/ETH)
Txn Hash Method
Block
From
To
Value [Txn Fee]
0x36a2a97727358c22b57b01840493504616e3e6d5e4bb259d9badd533399cba72Transfer195015842022-08-06 1:54:052 days 14 hrs ago0xaaa18a315494002e2fbd6205bcc05c7b46c01aacOUT0x80c67432656d59144ceff962e8faf8926599bcf81.165630000000009 ETH0.000065242073 ETH
0x46964f83770e44451355d006899e7e30299958faea8165a26d59cd6df7daa0450x06e75722195015022022-08-06 1:52:512 days 14 hrs ago0xaaa18a315494002e2fbd6205bcc05c7b46c01aacOUT 0xe8c97bf6d084880de38aec1a56d97ed9fdfa0c9b0 ETH0.000148036637 ETH
0x761811badd35c31947a7d0a1ea58f8bcca79a2bf96c53ce85aaabcd1cbfb98be0x06e75722195014142022-08-06 1:51:022 days 14 hrs ago0xaaa18a315494002e2fbd6205bcc05c7b46c01aacOUT 0xe8c97bf6d084880de38aec1a56d97ed9fdfa0c9b0.2 ETH0.000153123302 ETH
0xd05fe819da1ccc47b140e6d00eb9b50ca18eab953172016d618b5ef6fdced56dTransfer195011722022-08-06 1:47:002 days 14 hrs ago0xeb92c4f20e3aec5442b56a96a8b25cf48180679d IN 0xaaa18a315494002e2fbd6205bcc05c7b46c01aac0.495956523991419 ETH0.000057764348 ETH
0xf7081d7e03cddc60c43b8eef39b96184163044a8aa01dd54a31713457e32e45eCall Adapter195006812022-08-06 1:36:212 days 15 hrs ago0xaaa18a315494002e2fbd6205bcc05c7b46c01aacOUT0x0d1cc763ef54440311e99e426ccf8b9a922249320 ETH0.000188021744 ETH
0x60236be41293a305b000383d1c34fdaeefdceab5df48c537a67306f433f772afApprove195006622022-08-06 1:35:162 days 15 hrs ago0xaaa18a315494002e2fbd6205bcc05c7b46c01aacOUT 0x82af49447d8a07e3bd95bd0d56f35241523fbab10 ETH0.000077818065 ETH
0xe5b1a27d48dc06d54b1b57c3a391fe47e7e59cf1ff2b7ce46674a587ff07847bWithdraw195006372022-08-06 1:35:162 days 15 hrs ago0xaaa18a315494002e2fbd6205bcc05c7b46c01aacOUTAave: Pool V30 ETH0.000086090484 ETH
0xeeef269715e3cd7f88b19329676bbf807acd9096d655b876b126425c2e1789dfCreate_lock194685472022-08-05 15:26:103 days 1 hr ago0xaaa18a315494002e2fbd6205bcc05c7b46c01aacOUT 0xfbd849e6007f9bc3cc2d6eb159c045b8dc6602680 ETH0.000135279637 ETH
0x324693d8656c5d254134774e6b74c30731135204c6861a55b6d50be336d8541fApprove194685132022-08-05 15:24:363 days 1 hr ago0xaaa18a315494002e2fbd6205bcc05c7b46c01aacOUT0x6694340fc020c5e6b96567843da2df01b2ce1eb60 ETH0.000083792611 ETH
0xb8e3779328f726327b1db8940d23f37a37a9eed99bfd5dce390aae3ac68b3f4dSupply194684722022-08-05 15:24:363 days 1 hr ago0xaaa18a315494002e2fbd6205bcc05c7b46c01aacOUTAave: Pool V30 ETH0.00009749106 ETH
0x31929fccb652fcff3f8727a935ffa3b213140a4e2d3ac7293a3bb006bf48a93eApprove194684432022-08-05 15:23:593 days 1 hr ago0xaaa18a315494002e2fbd6205bcc05c7b46c01aacOUT 0x82af49447d8a07e3bd95bd0d56f35241523fbab10 ETH0.000084266987 ETH
0x30051357f482b43bdb1d0ea1acffb34b9772668ec81be3dd512c228434e367edCall Adapter194684022022-08-05 15:23:593 days 1 hr ago0xaaa18a315494002e2fbd6205bcc05c7b46c01aacOUT0x0d1cc763ef54440311e99e426ccf8b9a922249320.67 ETH0.000206303171 ETH
0x656ae754d7da06702b59663fba00e2eca541ff2ee7dcd5b785e6245242d75111Instant Redeem L...194683052022-08-05 15:22:363 days 1 hr ago0xaaa18a315494002e2fbd6205bcc05c7b46c01aacOUT0x53bf833a5d6c4dda888f69c22c88c9f356a416140 ETH0.000074500209 ETH
0x5a07635ad6a89131f03a85bc94f854dc0fdfe9beede988b039ca3502ad56a22eWithdraw194682232022-08-05 15:21:113 days 1 hr ago0xaaa18a315494002e2fbd6205bcc05c7b46c01aacOUT 0xea8dfee1898a7e0a59f7527f076106d7e44c21760 ETH0.000083155729 ETH
0xc726fdc0f66b0eeb70c138257d5d79b4d919a05010f79c22cc9b7d67dcb9d629Deposit194140322022-08-05 2:35:293 days 14 hrs ago0xaaa18a315494002e2fbd6205bcc05c7b46c01aacOUT 0xea8dfee1898a7e0a59f7527f076106d7e44c21760 ETH0.000066908779 ETH
0x4304db3097e5892ce5dbb5a07e4a42679f7b745eba20100fccf60b605d4cd8ddApprove194140102022-08-05 2:35:293 days 14 hrs ago0xaaa18a315494002e2fbd6205bcc05c7b46c01aacOUT 0x915a55e36a01285a14f05de6e81ed9ce89772f8e0 ETH0.000067510448 ETH
0xca5e48ba3e89f21e96201a6e6262a8fc4fe8b1305612fb08d09fc58e2a60f2d6Add Liquidity ET...194139812022-08-05 2:34:203 days 14 hrs ago0xaaa18a315494002e2fbd6205bcc05c7b46c01aacOUT 0xbf22f0f184bccbea268df387a49ff5238dd23e400.66 ETH0.000056845144 ETH
0x6b593cb67d435c2ca66909ee3f06a1ffe9466007a4b8ad3337fc5d6d5b5a382eTransfer194138592022-08-05 2:32:493 days 14 hrs ago0xaaa18a315494002e2fbd6205bcc05c7b46c01aacOUT0xeb92c4f20e3aec5442b56a96a8b25cf48180679d0.5 ETH0.000049140116 ETH
0xcf6022440f1ab4055901ec046fbf4d59e89f9af997c7d5253c3ef23872ebd55aTransfer194134622022-08-05 2:27:333 days 14 hrs ago0xa60113f7d43130919802b0863abdcdb956664fd5 IN 0xaaa18a315494002e2fbd6205bcc05c7b46c01aac1.1764 ETH0.000049740718 ETH
0x9ff5ea088949acebe4770901810640941b99f83ba97f05a6162466553b563dd2Transfer181949072022-07-21 11:03:0818 days 5 hrs ago0xaaa18a315494002e2fbd6205bcc05c7b46c01aacOUT0x8445d05040a022dd9182da991a120789b3e430e51.2972 ETH0.000085802837 ETH
0xe8ccb774a84b4eac57e36f9b9942b3730d8fb080d97a4527683a0dd25ee822fcTransfer181930202022-07-21 10:45:0418 days 5 hrs ago0xaaa18a315494002e2fbd6205bcc05c7b46c01aacOUT0x80c67432656d59144ceff962e8faf8926599bcf81.298923000000009 ETH0.000087793842 ETH
0x7c6578cd44ee3857b65763d6427c1876a3fddc7eeb30cbcab2237e96442eeb92Transfer181928362022-07-21 10:42:5018 days 5 hrs ago0xa60113f7d43130919802b0863abdcdb956664fd5 IN 0xaaa18a315494002e2fbd6205bcc05c7b46c01aac1.3 ETH0.000085613218 ETH
0xa9393b63de96444a45c1cee9eb32b81cb697d0ab926732f58dab1f731aba3b1dTransfer171912492022-07-07 13:43:1532 days 2 hrs ago0xaaa18a315494002e2fbd6205bcc05c7b46c01aacOUT0xeb92c4f20e3aec5442b56a96a8b25cf48180679d0.99395059337023 ETH0.000105516293 ETH
0xc783afee8bb087a8fec92888b10524a7c3fde04e59cc532da8beeb7a8c7dbabc0x2e4dbe8f171908472022-07-07 13:36:2132 days 3 hrs ago0xaaa18a315494002e2fbd6205bcc05c7b46c01aacOUT 0x9e6ef7f75ad88d4edb4c9925c94b769c5b0d62810 ETH0.000269435643 ETH
0xdc37d153303d628335c6702b579ff77eec3d92b1f47efd52c3e0b05ddadd236d0x2e4dbe8f171907742022-07-07 13:35:5232 days 3 hrs ago0xaaa18a315494002e2fbd6205bcc05c7b46c01aacOUT 0x9e6ef7f75ad88d4edb4c9925c94b769c5b0d62810 ETH0.000269105688 ETH
[ Download CSV Export 
Latest 7 internal transactions
Parent Txn Hash Block From To Value
0x46964f83770e44451355d006899e7e30299958faea8165a26d59cd6df7daa045195015022022-08-06 1:52:512 days 14 hrs ago 0x314f0a7bb5ddb4daecece9d3297e00e088713aff0xaaa18a315494002e2fbd6205bcc05c7b46c01aac0.1999607579681346 ETH
0xf7081d7e03cddc60c43b8eef39b96184163044a8aa01dd54a31713457e32e45e195006812022-08-06 1:36:212 days 15 hrs ago 0xcee85a334e6e2a0273c2f4234c25cdb270bf285a0xaaa18a315494002e2fbd6205bcc05c7b46c01aac0.665987738838063823 ETH
0x656ae754d7da06702b59663fba00e2eca541ff2ee7dcd5b785e6245242d75111194683052022-08-05 15:22:363 days 1 hr ago 0x82cbecf39bee528b5476fe6d1550af59a9db6fc00xaaa18a315494002e2fbd6205bcc05c7b46c01aac0.660000743023969324 ETH
0x409c85a18775b2c7d57c2d50116571ca7a63d454edbbf7ead81d4e4090aa946b181945812022-07-21 11:01:4218 days 5 hrs ago 0x33ceb27b39d2bb7d2e61f7564d3df293440204170xaaa18a315494002e2fbd6205bcc05c7b46c01aac1.296323158818206685 ETH
0x88cad672dd32ac3fa85fc9aaf0beb89a3a6adc7b44332c3fe64e5fd71e4a3190171902742022-07-07 13:26:4032 days 3 hrs ago 0x314f0a7bb5ddb4daecece9d3297e00e088713aff0xaaa18a315494002e2fbd6205bcc05c7b46c01aac0.680320086497812283 ETH
0x2879e1cdd9028308a4c7a39458ca646bbaf39a3394733f7a6ada9a0c786e2987171899422022-07-07 13:20:1532 days 3 hrs ago 0xf7edb240dbf7bbed7d321776afe87d1fbcfd0a940xaaa18a315494002e2fbd6205bcc05c7b46c01aac0.795723620606556357 ETH
0x7c64b28bdc0b1d2695f8ea5a469c7550a922c649a9c9b7e967002cd7531575c7154779522022-06-23 7:09:0646 days 9 hrs ago 0x33ceb27b39d2bb7d2e61f7564d3df293440204170xaaa18a315494002e2fbd6205bcc05c7b46c01aac0.796812628924318658 ETH
[ Download CSV Export 
Loading

Contract Name:
0 ETH

Compiler Version
0

Optimization Enabled:
0 ETH

Other Settings:
-NA-
Block Transaction Gas Used Reward
Age Block Fee Address BC Fee Address Voting Power Jailed Incoming
Block Uncle Number Difficulty Gas Used Reward
Loading
Make sure to use the "Vote Down" button for any spammy posts, and the "Vote Up" for interesting conversations.